GW5415 Weather Reports


time (UTC)temp
C
wind
direction
speed
KPH
gust
KPH
rain 1hr
cm
rain 24hr
cm
rain mn
cm
humidity
%
barometer
mb
20260505124637 17 91 0.0 0.0 0.00 0.00 0.00 66 1014.1
20260505124133 17 91 0.0 0.0 0.00 0.00 0.00 68 1014.1
20260505123629 15 90 0.0 0.0 0.00 0.00 0.00 69 1014.3
20260505123126 15 90 0.0 0.0 0.00 0.00 0.00 72 1014.3
20260505122623 15 90 0.0 0.0 0.00 0.00 0.00 72 1014.3
20260505122120 15 87 1.6 1.6 0.00 0.00 0.00 75 1014.1
20260505121616 15 86 0.0 0.0 0.00 0.00 0.00 74 1014.3
20260505121113 13 86 0.0 0.0 0.00 0.00 0.00 78 1013.9
20260505120609 13 87 1.6 1.6 0.00 0.00 0.00 81 1014.0
20260505120105 12 81 0.0 0.0 0.00 0.00 0.00 82 1014.0
20260505115600 12 68 0.0 0.0 0.00 0.00 0.00 78 1013.9
20260505115057 11 68 0.0 0.0 0.00 0.00 0.00 83 1013.9
20260505114555 11 68 0.0 0.0 0.00 0.00 0.00 86 1013.6
20260505114050 10 70 0.0 0.0 0.00 0.00 0.00 91 1013.7
20260505113547 9 73 0.0 0.0 0.00 0.00 0.00 95 1013.7
20260505113044 8 68 0.0 0.0 0.00 0.00 0.00 95 1013.4
20260505112540 8 62 0.0 0.0 0.00 0.00 0.00 95 1013.1
20260505112039 8 62 0.0 0.0 0.00 0.00 0.00 95 1013.0
20260505111538 8 62 0.0 0.0 0.00 0.00 0.00 95 1012.9
20260505111034 7 62 0.0 0.0 0.00 0.00 0.00 96 1013.2
20260505110531 7 62 0.0 0.0 0.00 0.00 0.00 95 1012.9
20260505102003 7 62 0.0 0.0 0.00 0.00 0.00 95 1012.9
20260505101501 7 62 0.0 0.0 0.00 0.00 0.00 95 1013.1
20260505100957 7 62 0.0 0.0 0.00 0.00 0.00 95 1013.1
20260505100455 7 62 0.0 0.0 0.00 0.00 0.00 95 1013.0
20260505095951 7 62 0.0 0.0 0.00 0.00 0.00 95 1013.1
20260505095448 7 62 0.0 0.0 0.00 0.00 0.00 94 1013.1
20260505094944 8 62 0.0 0.0 0.00 0.00 0.00 94 1013.1
20260505094441 8 62 0.0 0.0 0.00 0.00 0.00 95 1012.8
20260505093937 8 62 0.0 0.0 0.00 0.00 0.00 95 1012.9
20260505093434 8 62 0.0 0.0 0.00 0.00 0.00 95 1012.7
20260505092931 8 62 0.0 0.0 0.00 0.00 0.00 95 1012.8
20260505092429 8 62 0.0 0.0 0.00 0.00 0.00 95 1013.0
20260505091926 8 62 0.0 0.0 0.00 0.00 0.00 94 1013.0
20260505091423 8 62 0.0 0.0 0.00 0.00 0.00 94 1012.8
20260505090921 8 62 0.0 0.0 0.00 0.00 0.00 94 1012.9
20260505090419 8 62 0.0 0.0 0.00 0.00 0.00 94 1012.9
20260505085916 8 62 0.0 0.0 0.00 0.00 0.00 93 1012.8
20260505085414 8 62 0.0 0.0 0.00 0.00 0.00 93 1013.1
20260505084912 8 62 0.0 0.0 0.00 0.00 0.00 93 1013.0
20260505084410 8 62 0.0 0.0 0.00 0.00 0.00 93 1013.1
20260505083908 8 62 0.0 0.0 0.00 0.00 0.00 93 1012.9
20260505083405 8 62 0.0 0.0 0.00 0.00 0.00 93 1013.1
20260505082901 8 62 0.0 0.0 0.00 0.00 0.00 92 1012.8
20260505082357 8 62 0.0 0.0 0.00 0.00 0.00 92 1012.7
20260505081854 8 62 0.0 0.0 0.00 0.00 0.00 92 1012.9
20260505081350 8 62 0.0 0.0 0.00 0.00 0.00 92 1012.9
20260505080847 8 62 0.0 0.0 0.00 0.00 0.00 91 1012.9
20260505080343 9 62 0.0 0.0 0.00 0.00 0.00 91 1012.8
20260505075839 9 62 0.0 0.0 0.00 0.00 0.00 91 1012.7
20260505075336 9 62 0.0 0.0 0.00 0.00 0.00 90 1012.8
20260505074833 9 62 0.0 0.0 0.00 0.00 0.00 90 1012.8
20260505074330 10 62 0.0 0.0 0.00 0.00 0.00 89 1012.8
20260505073828 10 62 0.0 0.0 0.00 0.00 0.00 88 1012.6
20260505073326 10 62 0.0 0.0 0.00 0.00 0.00 87 1012.7
20260505072822 10 62 0.0 0.0 0.00 0.00 0.00 86 1012.7
20260505072319 11 62 0.0 0.0 0.00 0.00 0.00 85 1012.8
20260505071814 11 62 0.0 0.0 0.00 0.00 0.00 86 1012.9
20260505071311 10 62 0.0 0.0 0.00 0.00 0.00 87 1012.7
20260505070809 10 62 0.0 0.0 0.00 0.00 0.00 87 1013.0
20260505070305 10 62 0.0 0.0 0.00 0.00 0.00 86 1012.8
20260505065800 11 62 0.0 0.0 0.00 0.00 0.00 85 1012.9
20260505065258 11 62 0.0 0.0 0.00 0.00 0.00 84 1013.0
20260505064755 11 62 0.0 0.0 0.00 0.00 0.00 84 1012.9
20260505064252 11 62 0.0 0.0 0.00 0.00 0.00 85 1012.9
20260505063750 11 62 0.0 0.0 0.00 0.00 0.00 83 1013.0
20260505063246 11 62 0.0 0.0 0.00 0.00 0.00 83 1013.0
20260505062742 11 62 0.0 0.0 0.00 0.00 0.00 83 1013.1
20260505062240 11 62 0.0 0.0 0.00 0.00 0.00 84 1013.0
20260505061737 11 62 0.0 0.0 0.00 0.00 0.00 84 1013.0
20260505061235 11 62 0.0 0.0 0.00 0.00 0.00 83 1012.9
20260505060732 11 63 0.0 0.0 0.00 0.00 0.00 85 1013.0
20260505060229 11 65 0.0 0.0 0.00 0.00 0.00 85 1013.0
20260505055724 11 64 1.6 1.6 0.00 0.00 0.00 85 1012.9
20260505055221 11 62 0.0 0.0 0.00 0.00 0.00 85 1012.8
20260505054718 11 68 0.0 0.0 0.00 0.00 0.00 84 1012.8
20260505054216 11 68 0.0 1.6 0.00 0.00 0.00 84 1012.9
20260505053714 12 68 0.0 0.0 0.00 0.00 0.00 84 1012.8
20260505053210 12 69 0.0 0.0 0.00 0.00 0.00 83 1012.8
20260505052707 12 69 0.0 0.0 0.00 0.00 0.00 83 1012.9
20260505052204 11 69 0.0 0.0 0.00 0.00 0.00 83 1012.7
20260505051701 12 69 0.0 0.0 0.00 0.00 0.00 84 1012.8
20260505051159 12 69 0.0 0.0 0.00 0.00 0.00 83 1012.8
20260505050657 12 69 0.0 0.0 0.00 0.00 0.00 83 1012.7
20260505050155 12 70 0.0 0.0 0.00 0.00 0.00 83 1012.7
20260505041625 12 70 0.0 0.0 0.00 0.00 0.00 83 1012.7
20260505041122 12 70 0.0 0.0 0.00 0.00 0.00 81 1012.8
20260505040619 12 70 0.0 0.0 0.00 0.00 0.00 81 1012.8
20260505040116 12 69 0.0 0.0 0.00 0.00 0.00 80 1012.9
20260505035612 12 70 0.0 0.0 0.00 0.00 0.00 81 1012.9
20260505035109 13 70 0.0 0.0 0.00 0.00 0.00 80 1012.8
20260505034605 13 70 0.0 0.0 0.00 0.00 0.00 79 1012.8
20260505034102 13 73 0.0 0.0 0.00 0.00 0.00 79 1012.8
20260505033559 13 73 0.0 0.0 0.00 0.00 0.00 78 1012.8
20260505033058 13 73 0.0 0.0 0.00 0.00 0.00 76 1012.9
20260505032555 13 73 0.0 0.0 0.00 0.00 0.00 76 1012.8
20260505032051 13 73 0.0 0.0 0.00 0.00 0.00 76 1012.8
20260505031549 13 73 0.0 0.0 0.00 0.00 0.00 76 1012.7
20260505031045 14 73 0.0 0.0 0.00 0.00 0.00 75 1012.8
20260505030542 14 73 0.0 0.0 0.00 0.00 0.00 74 1013.0
20260505030038 15 73 0.0 0.0 0.00 0.00 0.00 72 1012.8
20260505025534 15 73 0.0 0.0 0.00 0.00 0.00 70 1013.0
20260505025033 15 83 0.0 0.0 0.00 0.00 0.00 70 1012.8
20260505024529 15 84 0.0 0.0 0.00 0.00 0.00 69 1013.0
20260505024026 15 84 0.0 0.0 0.00 0.00 0.00 70 1013.1
20260505023523 15 84 0.0 0.0 0.00 0.00 0.00 69 1012.9
20260505023021 15 84 0.0 0.0 0.00 0.00 0.00 67 1013.0
20260505022519 16 84 0.0 0.0 0.00 0.00 0.00 65 1012.9
20260505022016 16 84 0.0 0.0 0.00 0.00 0.00 64 1013.1
20260505021512 16 84 0.0 0.0 0.00 0.00 0.00 62 1012.8
20260505021008 17 84 0.0 0.0 0.00 0.00 0.00 61 1012.8
20260505020503 17 84 0.0 0.0 0.00 0.00 0.00 59 1012.8
20260505020000 17 84 0.0 0.0 0.00 0.00 0.00 60 1012.8
20260505015457 17 84 0.0 0.0 0.00 0.00 0.00 59 1012.9
20260505014954 17 84 0.0 0.0 0.00 0.00 0.00 59 1012.7
20260505014451 17 84 0.0 0.0 0.00 0.00 0.00 58 1012.7
20260505013948 17 84 0.0 0.0 0.00 0.00 0.00 58 1012.7
20260505013445 17 84 0.0 0.0 0.00 0.00 0.00 57 1012.7
20260505012943 18 84 0.0 0.0 0.00 0.00 0.00 57 1012.7
20260505012441 18 84 0.0 0.0 0.00 0.00 0.00 56 1012.7
20260505011937 18 82 0.0 0.0 0.00 0.00 0.00 57 1012.5
20260505011433 18 82 0.0 0.0 0.00 0.00 0.00 55 1012.4
20260505010930 19 81 0.0 0.0 0.00 0.00 0.00 54 1012.4
20260505010426 19 86 0.0 0.0 0.00 0.00 0.00 54 1012.5
20260505005922 19 86 0.0 0.0 0.00 0.00 0.00 53 1012.6
20260505005419 20 84 0.0 0.0 0.00 0.00 0.00 53 1012.5
20260505004916 20 80 0.0 0.0 0.00 0.00 0.00 52 1012.5
20260505004413 20 85 1.6 1.6 0.00 0.00 0.00 50 1012.3
20260505003910 20 80 0.0 0.0 0.00 0.00 0.00 51 1012.4
20260505003407 20 83 0.0 0.0 0.00 0.00 0.00 51 1012.4
20260505002903 20 82 1.6 3.2 0.00 0.00 0.00 51 1012.1
20260505002400 21 80 0.0 0.0 0.00 0.00 0.00 49 1012.1
20260505001858 21 105 1.6 1.6 0.00 0.00 0.00 49 1012.0
20260505001355 21 83 0.0 1.6 0.00 0.00 0.00 49 1012.0
20260505000853 22 80 1.6 1.6 0.00 0.00 0.00 48 1012.1
20260505000351 22 78 1.6 1.6 0.00 0.00 0.00 46 1012.2
20260504235846 22 76 0.0 0.0 0.00 0.00 0.00 47 1011.8
20260504235343 22 79 0.0 0.0 0.00 0.00 0.00 47 1012.0
20260504234840 22 80 0.0 0.0 0.00 0.00 0.00 47 1012.1
20260504234338 22 91 1.6 1.6 0.00 0.00 0.00 47 1011.9
20260504233834 22 94 4.8 4.8 0.00 0.00 0.00 46 1012.2
20260504233330 22 67 1.6 1.6 0.00 0.00 0.00 47 1012.0
20260504232827 22 88 1.6 1.6 0.00 0.00 0.00 47 1012.0
20260504232324 23 91 0.0 1.6 0.00 0.00 0.00 48 1012.1
20260504231821 23 107 0.0 0.0 0.00 0.00 0.00 48 1012.1
20260504231317 23 103 3.2 3.2 0.00 0.00 0.00 47 1012.0
20260504230813 23 122 3.2 4.8 0.00 0.00 0.00 47 1012.0
20260504230311 23 92 1.6 1.6 0.00 0.00 0.00 46 1011.9
20260504225810 23 72 3.2 4.8 0.00 0.00 0.00 46 1011.9
20260504225306 23 70 3.2 4.8 0.00 0.00 0.00 45 1012.1
20260504224803 23 85 0.0 1.6 0.00 0.00 0.00 46 1012.0
20260504224300 24 243 3.2 6.4 0.00 0.00 0.00 44 1011.9
20260504223757 24 94 3.2 3.2 0.00 0.00 0.00 44 1011.8
20260504223252 25 128 3.2 3.2 0.00 0.00 0.00 43 1012.0
20260504222749 24 67 3.2 3.2 0.00 0.00 0.00 42 1012.1
20260504222246 25 122 3.2 3.2 0.00 0.00 0.00 42 1012.0
20260504221744 24 92 0.0 0.0 0.00 0.00 0.00 42 1012.0
20260504221241 25 46 3.2 3.2 0.00 0.00 0.00 42 1012.3
20260504220737 25 70 1.6 3.2 0.00 0.00 0.00 42 1012.0
20260504220235 25 81 1.6 1.6 0.00 0.00 0.00 42 1012.1
20260504215732 25 77 3.2 3.2 0.00 0.00 0.00 42 1012.1
20260504215228 25 132 3.2 4.8 0.00 0.00 0.00 38 1012.2
20260504214724 25 75 3.2 3.2 0.00 0.00 0.00 42 1012.0
20260504214221 25 130 3.2 4.8 0.00 0.00 0.00 40 1012.1
20260504213718 25 90 0.0 0.0 0.00 0.00 0.00 43 1012.0
20260504213214 25 78 1.6 1.6 0.00 0.00 0.00 40 1012.0
20260504212711 25 83 1.6 1.6 0.00 0.00 0.00 42 1012.0
20260504212208 25 100 6.4 12.9 0.00 0.00 0.00 40 1012.1
20260504211705 25 83 1.6 3.2 0.00 0.00 0.00 44 1012.2
20260504211201 25 79 1.6 3.2 0.00 0.00 0.00 44 1012.1
20260504210659 26 80 4.8 4.8 0.00 0.00 0.00 41 1012.2
20260504210155 26 66 0.0 1.6 0.00 0.00 0.00 41 1012.1
20260504205653 26 76 0.0 1.6 0.00 0.00 0.00 41 1012.2
20260504205150 26 107 3.2 4.8 0.00 0.00 0.00 42 1012.4
20260504204648 26 90 3.2 3.2 0.00 0.00 0.00 43 1012.2
20260504204147 25 88 1.6 1.6 0.00 0.00 0.00 41 1012.3
20260504203645 26 67 0.0 0.0 0.00 0.00 0.00 43 1012.4
20260504203143 26 102 3.2 4.8 0.00 0.00 0.00 43 1012.3
20260504202643 26 100 1.6 1.6 0.00 0.00 0.00 43 1012.4
20260504202140 26 120 3.2 4.8 0.00 0.00 0.00 40 1012.6
20260504201637 26 158 4.8 6.4 0.00 0.00 0.00 38 1012.6
20260504201135 25 71 3.2 6.4 0.00 0.00 0.00 40 1012.7
20260504200631 25 84 3.2 4.8 0.00 0.00 0.00 46 1012.7
20260504200128 26 117 6.4 6.4 0.00 0.00 0.00 43 1012.6
20260504195624 26 112 3.2 3.2 0.00 0.00 0.00 42 1012.8
20260504195120 25 103 0.0 0.0 0.00 0.00 0.00 46 1012.9
20260504194617 25 86 1.6 3.2 0.00 0.00 0.00 45 1013.0
20260504194113 25 188 4.8 6.4 0.00 0.00 0.00 43 1013.1
20260504193609 25 68 1.6 3.2 0.00 0.00 0.00 44 1013.2
20260504193108 25 84 1.6 1.6 0.00 0.00 0.00 45 1013.1
20260504192606 25 162 8.0 9.7 0.00 0.00 0.00 43 1013.2
20260504192104 25 114 6.4 6.4 0.00 0.00 0.00 46 1013.4
20260504191602 25 79 1.6 1.6 0.00 0.00 0.00 45 1013.5
20260504191057 25 249 3.2 4.8 0.00 0.00 0.00 45 1013.5
20260504190554 25 0 1.6 3.2 0.00 0.00 0.00 42 1013.7
20260504190050 25 79 1.6 1.6 0.00 0.00 0.00 45 1013.7
20260504185547 26 87 1.6 1.6 0.00 0.00 0.00 45 1013.6
20260504185044 26 71 1.6 1.6 0.00 0.00 0.00 44 1013.8
20260504184539 25 70 0.0 1.6 0.00 0.00 0.00 44 1013.6
20260504184035 25 77 1.6 1.6 0.00 0.00 0.00 45 1013.8
20260504183532 25 159 4.8 6.4 0.00 0.00 0.00 44 1013.8
20260504183030 25 86 1.6 1.6 0.00 0.00 0.00 50 1014.0
20260504182527 25 65 1.6 1.6 0.00 0.00 0.00 45 1014.0
20260504182024 25 193 1.6 3.2 0.00 0.00 0.00 44 1013.9
20260504181521 25 120 1.6 3.2 0.00 0.00 0.00 44 1014.1
20260504181020 25 240 6.4 9.7 0.00 0.00 0.00 43 1014.3
20260504180518 24 41 1.6 3.2 0.00 0.00 0.00 45 1014.3
20260504180017 25 92 3.2 3.2 0.00 0.00 0.00 46 1014.5
20260504175513 24 90 1.6 1.6 0.00 0.00 0.00 44 1014.4
20260504175010 23 120 3.2 6.4 0.00 0.00 0.00 46 1014.5
20260504174508 24 100 3.2 4.8 0.00 0.00 0.00 44 1014.6
20260504174005 23 46 4.8 4.8 0.00 0.00 0.00 45 1014.5
20260504173501 24 67 6.4 9.7 0.00 0.00 0.00 46 1014.5
20260504172959 23 78 0.0 0.0 0.00 0.00 0.00 46 1014.8
20260504172454 23 86 1.6 1.6 0.00 0.00 0.00 44 1014.9
20260504171951 24 117 3.2 4.8 0.00 0.00 0.00 50 1014.9
20260504171448 23 54 1.6 3.2 0.00 0.00 0.00 47 1014.9
20260504170945 23 165 4.8 4.8 0.00 0.00 0.00 47 1015.1
20260504170441 23 232 8.0 11.3 0.00 0.00 0.00 45 1014.9
20260504160401 22 107 1.6 3.2 0.00 0.00 0.00 44 1015.9
20260504150825 21 81 1.6 1.6 0.00 0.00 0.00 49 1016.5
20260504150322 21 178 4.8 6.4 0.00 0.00 0.00 46 1016.6
20260504141252 18 80 0.0 0.0 0.00 0.00 0.00 55 1017.2
20260504140749 17 74 0.0 1.6 0.00 0.00 0.00 57 1017.1
20260504140244 17 88 0.0 1.6 0.00 0.00 0.00 56 1017.0
20260504130713 13 73 0.0 0.0 0.00 0.00 0.00 67 1017.4
20260504130209 13 70 0.0 0.0 0.00 0.00 0.00 68 1017.5